Manning, SC

11:01 AM EDT on September 23, 2017 (GMT -0400)
Santee Cooper Regional

Weather History for KMNI - October, 2012

Change the Weather History Date:

Monday, October 29, 2012

  Actual Average (KCKI) Record (KCKI)
Temperature  
Mean Temperature 56 °F -  
Max Temperature 64 °F 74 °F 82 °F (2014)
Min Temperature 48 °F 44 °F 44 °F (2011)
Degree Days  
Heating Degree Days 9    
Growing Degree Days 6 (Base 50)    
Moisture  
Dew Point 34 °F    
Average Humidity 44    
Maximum Humidity 66    
Minimum Humidity 10    
Precipitation  
Precipitation 0.00 in - - ()
Sea Level Pressure  
Sea Level Pressure 29.61 in    
Wind  
Wind Speed 10 mph (NW)    
Max Wind Speed 16 mph    
Max Gust Speed 25 mph    
Visibility 9 miles    
Events      
Averages and records for this station are not official NWS values.
T = Trace of Precipitation, MM = Missing Value Source: NWS Daily Summary

Daily Weather History Graph

Daily Weather History Graph

Search for Another Location

Airport or City:

Trip Planner

Search our weather history database for the weather conditions in past years. The results will help you decide how hot, cold, wet, or windy it might be!

Date:

Astronomy

Oct. 29, 2012 Rise Set
Actual Time 7:37 AM EDT 6:31 PM EDT
Civil Twilight 7:11 AM EDT 6:56 PM EDT
Nautical Twilight 6:42 AM EDT 7:25 PM EDT
Astronomical Twilight 6:13 AM EDT 7:54 PM EDT
Moon 6:24 PM EDT (10/29) 7:25 AM EDT (10/29)
Length of Visible Light 11h 44m
Length of Day
10h 53m
Full, 100% of the Moon is Illuminated
Oct 29
Full
Oct 29
Full
Nov 6
Last Quarter
Nov 13
New
Nov 20
First Quarter

Hourly Weather History & Observations

Time (EDT) Temp. Dew Point Humidity Pressure Visibility Wind Dir Wind Speed Gust Speed Precip Events Conditions
12:15 AM 60.8 °F 46.4 °F 59% 29.63 in 7.0 mi NW 9.2 mph 16.1 mph N/A   Overcast
12:35 AM 60.8 °F 46.4 °F 59% 29.64 in 7.0 mi NW 12.7 mph 18.4 mph N/A   Overcast
12:55 AM 60.8 °F 46.4 °F 59% 29.64 in 10.0 mi NW 10.4 mph - N/A   Overcast
1:15 AM 59.0 °F 35.6 °F 42% 29.64 in 10.0 mi NW 6.9 mph - N/A   Overcast
1:35 AM 59.0 °F 32.0 °F 36% 29.64 in 10.0 mi NW 9.2 mph 17.3 mph N/A   Overcast
1:55 AM 59.0 °F 37.4 °F 45% 29.64 in 10.0 mi NW 8.1 mph 19.6 mph N/A   Overcast
2:15 AM 59.0 °F 44.6 °F 59% 29.64 in 10.0 mi NW 11.5 mph 18.4 mph N/A   Overcast
2:35 AM 57.2 °F 42.8 °F 59% 29.64 in 10.0 mi NW 10.4 mph - N/A   Overcast
2:55 AM 57.2 °F -0.4 °F 10% 29.64 in 10.0 mi NW 8.1 mph 17.3 mph N/A   Overcast
3:15 AM 55.4 °F 17.6 °F 23% 29.64 in 10.0 mi NW 9.2 mph 16.1 mph N/A   Mostly Cloudy
3:35 AM 55.4 °F 17.6 °F 23% 29.64 in 10.0 mi NW 5.8 mph - N/A   Mostly Cloudy
3:55 AM 53.6 °F 35.6 °F 51% 29.64 in 10.0 mi NW 8.1 mph 17.3 mph N/A   Mostly Cloudy
4:15 AM 53.6 °F 37.4 °F 54% 29.64 in 10.0 mi NW 9.2 mph 16.1 mph N/A   Overcast
4:35 AM 53.6 °F 37.4 °F 54% 29.64 in 10.0 mi NW 11.5 mph 16.1 mph N/A   Overcast
4:55 AM 53.6 °F 32.0 °F 44% 29.64 in 10.0 mi NW 9.2 mph - N/A   Overcast
5:15 AM 51.8 °F 30.2 °F 44% 29.64 in 10.0 mi NW 10.4 mph 18.4 mph N/A   Overcast
5:35 AM 51.8 °F 35.6 °F 54% 29.65 in 10.0 mi NW 9.2 mph 16.1 mph N/A   Overcast
6:15 AM 50.0 °F 35.6 °F 58% 29.64 in 10.0 mi NW 9.2 mph 17.3 mph N/A   Clear
6:55 AM 50.0 °F 35.6 °F 58% 29.64 in 7.0 mi NW 6.9 mph - N/A   Clear
7:15 AM 50.0 °F 35.6 °F 58% 29.65 in 10.0 mi WNW 6.9 mph - N/A   Clear
7:35 AM 48.2 °F 32.0 °F 54% 29.65 in 7.0 mi WNW 4.6 mph - N/A   Clear
7:55 AM 48.2 °F 37.4 °F 66% 29.65 in 7.0 mi WNW 4.6 mph - N/A   Clear
8:15 AM 48.2 °F 37.4 °F 66% 29.66 in 7.0 mi WNW 8.1 mph - N/A   Clear
8:35 AM 50.0 °F 37.4 °F 62% 29.66 in 7.0 mi WNW 6.9 mph - N/A   Clear
8:55 AM 50.0 °F 35.6 °F 58% 29.66 in 7.0 mi WNW 8.1 mph - N/A   Clear
9:15 AM 51.8 °F 35.6 °F 54% 29.66 in 10.0 mi NW 10.4 mph 18.4 mph N/A   Clear
9:35 AM 53.6 °F 35.6 °F 51% 29.66 in 10.0 mi NW 15.0 mph 19.6 mph N/A   Clear
9:55 AM 53.6 °F 35.6 °F 51% 29.65 in 7.0 mi NNW 11.5 mph 20.7 mph N/A   Clear
10:15 AM 55.4 °F 35.6 °F 47% 29.65 in 10.0 mi NW 15.0 mph 18.4 mph N/A   Clear
10:35 AM 55.4 °F 35.6 °F 47% 29.65 in 10.0 mi NW 11.5 mph 23.0 mph N/A   Clear
10:55 AM 55.4 °F 33.8 °F 44% 29.65 in 10.0 mi NW 12.7 mph 25.3 mph N/A   Clear
11:15 AM 59.0 °F 33.8 °F 39% 29.64 in 10.0 mi WNW 11.5 mph 20.7 mph N/A   Clear
11:55 AM 59.0 °F 33.8 °F 39% 29.63 in 10.0 mi NW 11.5 mph 21.9 mph N/A   Clear
12:15 PM 59.0 °F 32.0 °F 36% 29.62 in 10.0 mi NNW 11.5 mph 25.3 mph N/A   Clear
12:35 PM 60.8 °F 33.8 °F 36% 29.62 in 10.0 mi NW 16.1 mph 24.2 mph N/A   Clear
12:55 PM 60.8 °F 33.8 °F 36% 29.61 in 10.0 mi NW 16.1 mph 23.0 mph N/A   Clear
1:15 PM 62.6 °F 33.8 °F 34% 29.60 in 10.0 mi WNW 15.0 mph 23.0 mph N/A   Clear
1:35 PM 62.6 °F 33.8 °F 34% 29.59 in 10.0 mi WNW 13.8 mph 21.9 mph N/A   Clear
1:55 PM 62.6 °F 33.8 °F 34% 29.58 in 10.0 mi NW 13.8 mph 23.0 mph N/A   Scattered Clouds
2:15 PM 62.6 °F 33.8 °F 34% 29.57 in 10.0 mi NW 16.1 mph 25.3 mph N/A   Scattered Clouds
2:35 PM 62.6 °F 33.8 °F 34% 29.57 in 10.0 mi NW 10.4 mph 20.7 mph N/A   Scattered Clouds
3:15 PM 64.4 °F 33.8 °F 32% 29.55 in 10.0 mi NW 16.1 mph 23.0 mph N/A   Scattered Clouds
3:55 PM 62.6 °F 33.8 °F 34% 29.54 in 10.0 mi WNW 10.4 mph 18.4 mph N/A   Mostly Cloudy
4:35 PM 62.6 °F 33.8 °F 34% 29.53 in 10.0 mi WNW 12.7 mph 21.9 mph N/A   Overcast
4:55 PM 62.6 °F 33.8 °F 34% 29.53 in 10.0 mi NW 6.9 mph 17.3 mph N/A   Overcast
5:15 PM 62.6 °F 33.8 °F 34% 29.53 in 10.0 mi NW 10.4 mph 17.3 mph N/A   Overcast
5:55 PM 62.6 °F 33.8 °F 34% 29.53 in 10.0 mi WNW 10.4 mph 17.3 mph N/A   Overcast
6:15 PM 60.8 °F 33.8 °F 36% 29.53 in 10.0 mi NW 10.4 mph 19.6 mph N/A   Overcast
6:35 PM 60.8 °F 33.8 °F 36% 29.53 in 7.0 mi NW 8.1 mph 18.4 mph N/A   Overcast
6:55 PM 60.8 °F 33.8 °F 36% 29.54 in 10.0 mi WNW 9.2 mph - N/A   Overcast
7:15 PM 59.0 °F 33.8 °F 39% 29.54 in 10.0 mi WNW 9.2 mph 19.6 mph N/A   Overcast
7:35 PM 59.0 °F 32.0 °F 36% 29.55 in 7.0 mi WNW 10.4 mph 17.3 mph N/A   Overcast
7:55 PM 59.0 °F 32.0 °F 36% 29.55 in 10.0 mi WNW 9.2 mph 19.6 mph N/A   Overcast
8:15 PM 59.0 °F 32.0 °F 36% 29.55 in 10.0 mi WNW 9.2 mph 24.2 mph N/A   Overcast
8:35 PM 57.2 °F 32.0 °F 38% 29.56 in 10.0 mi WNW 9.2 mph 17.3 mph N/A   Overcast
11:55 PM 51.8 °F 32.0 °F 47% 29.58 in 7.0 mi WNW 8.1 mph - N/A   Clear